Location: Étouvelles
(49.5207°N, 3.5808°E)
Time: 23:18:53
(UTC+00:00)

Resurs 01 Rocket - Pass Details

Date: 03 February 2023
Orbit: 632 x 643 km, 97.9° (Epoch: 21 March)

Event Time Altitude Azimuth Distance (km) Brightness Sun altitude
Exits shadow 19:00:37 11° 12° (NNE) 1,975 4.0 -22.3°
Drops below altitude 10° 19:00:51 10° 10° (N) 2,051 4.1 -22.3°
Sets 19:03:24 0° 357° (N) 2,967 5.1 -22.7°
